Flag for Germany Weather past 2 weeks in Velbert, North Rhine-Westphalia, Germany

Now
87 °F

Sunny.


Feels Like: 90 °F
Forecast: 74 / 94 °F
Wind: 3 mph from Northeast

Location: Essen

Current Time: Jul 3, 2015 at 8:06:17 PM

Latest Report: Jul 3, 2015 at 7:00 PM


Visibility: 9 mi

Pressure: 30.16 "Hg

Humidity: 51%

Dew point: 67 °F

Location of VelbertLocation

Historic Weather in Velbert — Graph

°F

Velbert temperature yesterday

Maximum temperature yesterday: 96 °F (at 4:00 PM)
Minimum temperature yesterday: 76 °F (at 6:00 AM)
Average temperature yesterday: 86 °F

Past Weeks' High & Low Weather Summary

 TemperatureHumidityPressure
High96 °F (Jul 2, 4:00 PM)100% (Jun 22, 10:00 AM)30.24 "Hg (Jun 22, 10:00 AM)
Low48 °F (Jun 23, 5:00 AM)24% (Jul 1, 5:00 PM)29.71 "Hg (Jun 22, 9:00 PM)
Average65 °F70%30.07 "Hg
* Reported Jun 18 7:00 PM — Jul 3 7:00 PM, Velbert, Weather by CustomWeather, © 2015

Note: Actual official high and low records may vary slightly from our data, if they occured in-between our weather recording intervals... More about our weather records

Advertising

Velbert weather history for previous 24 hours

 ConditionsComfort  
Time TempWeatherWind HumidityBarometerVisibility
7:00 PM
Fri, Jul 3
87 °FSunny.3 mph51%30.16 "Hg9 mi
6:00 PM88 °FSunny.2 mph47%30.17 "Hg11 mi
5:00 PM88 °FPassing clouds.2 mph47%30.18 "Hg11 mi
4:00 PM88 °FSunny.1 mph47%30.19 "Hg12 mi
3:00 PM86 °FSunny.2 mph49%30.20 "Hg11 mi
2:00 PM84 °FSunny.3 mph55%30.21 "Hg12 mi
1:00 PM83 °FSunny.3 mph56%30.22 "Hg12 mi
12:00 PM81 °FSunny.2 mph60%30.23 "Hg12 mi
11:00 AM78 °FSunny.3 mph65%30.24 "Hg12 mi
10:00 AM77 °FSunny.3 mph68%30.24 "Hg12 mi
9:00 AM73 °FPassing clouds.2 mph74%30.24 "Hg12 mi
8:00 AM71 °FPassing clouds.2 mph83%30.24 "Hg11 mi
7:00 AM68 °FPartly sunny.1 mph91%30.24 "Hg10 mi
6:00 AM67 °FOvercast.2 mph91%30.24 "Hg10 mi
5:00 AM68 °FPassing clouds.3 mph88%30.22 "Hg11 mi
4:00 AM69 °FPassing clouds.1 mph87%30.19 "Hg10 mi
3:00 AM70 °FOvercast.2 mph87%30.19 "Hg8 mi
2:00 AM71 °FOvercast.2 mph88%30.17 "Hg7 mi
1:00 AM71 °FRain. Low clouds.5 mph83%30.15 "Hg3 mi
12:00 AM76 °FPassing clouds.3 mph69%30.12 "Hg12 mi
11:00 PM
Thu, Jul 2
79 °FClear.3 mph65%30.07 "Hg11 mi
10:00 PM82 °FOvercast.3 mph60%30.06 "Hg13 mi
9:00 PM90 °FOvercast.1 mph41%30.04 "Hg22 mi
8:00 PM90 °FPartly sunny.3 mph43%30.03 "Hg19 mi
Weather by CustomWeather, © 2015

See weather overviewHow to use our weather pages